www.pogodaiklimat.ru

Погода и климат >> Архив погоды >> Швейцария >> Лугано


ПОГОДА в Лугано

  • Прогноз погоды в Лугано
  • Монитор погоды в Лугано

АРХИВ ПОГОДЫ в Лугано

Время (UTC), дата Ветер
(напр.,м/с)
 
Видим.   Явления Облачность Т
(С)
Тd
(С)
f
(%)
Тe
(С)
Тes
(С)
Комфортность P
(гПа)
Po
(гПа)
Тmin
(С)
Tmax
(С)
R
(мм)
R24
(мм)
S
(см)
22 12.06 С 1
{3}
н/о н/о +18.1 +12.5 70 +19 +19 1013.0 978.1
23 12.06 Ю 1
{3}
н/о н/о +18.4 +12.3 68 +20 +20 1013.2 978.4
00 13.06 С 2
{8}
15 км ясно +16.2 +12.3 78 +16 +16 1013.6 978.5
01 13.06 С 1
{4}
н/о н/о +15.6 +11.1 75 +16 +16 1013.9 978.7
02 13.06 С 1
{2}
н/о н/о +14.9 +11.2 79 +15 +15 1014.0 978.7
03 13.06 С 2
{4}
20 км ясно +14.3 +10.8 79 +14 +14 1014.3 978.9
04 13.06 С 2
{3}
н/о н/о +14.1 +10.3 78 +14 +14 1014.5 979.1
05 13.06 С 2
{3}
н/о н/о +13.9 +10.2 78 +13 +13 1015.3 979.8
06 13.06 З 1
{4}
25 км ясно +16.3 +11.2 72 +18 +22 1015.1 979.9 +13.6
07 13.06 В 1
{2}
н/о н/о +17.7 +12.4 71 +19 +19 1015.2 980.2
08 13.06 Ю 2
{3}
н/о н/о +17.5 +12.5 72 +18 +18 1015.6 980.6
09 13.06 ЮВ 2
{3}
н/о н/о +20.2 +13.1 64 +23 +23 комфорт 1015.5 980.8
10 13.06 Ю 3
{6}
н/о н/о +22.2 +14.0 60 +25 +25 комфорт 1015.4 980.9
11 13.06 Ю 2
{5}
н/о н/о +23.5 +13.1 52 +26 +26 жарко 1014.9 980.6
12 13.06 ЮВ 1
{6}
25 км ясно +24.2 +12.0 46 +26 +48 жарко 1014.5 980.3
13 13.06 Ю 3
{7}
н/о н/о +25.2 +7.6 33 +25 +25 комфорт 1014.4 980.3
14 13.06 Ю 3
{6}
н/о н/о +25.1 +8.8 36 +26 +26 жарко 1014.5 980.4
15 13.06 Ю 3
{8}
н/о н/о +25.2 +8.4 34 +26 +26 жарко 1014.5 980.4
16 13.06 Ю 3
{6}
н/о н/о +24.6 +11.2 43 +26 +26 жарко 1014.7 980.6
17 13.06 Ю 3
{6}
н/о н/о +23.8 +12.6 49 +26 +26 жарко 1015.0 980.8
18 13.06 Ю 3
{8}
30 км 4/0
[]
+23.8 +8.7 38 +24 +25 комфорт 1015.5 981.2 +25.3
19 13.06 ЮВ 1
{4}
н/о н/о +21.7 +10.3 48 +23 +23 комфорт 1016.3 981.8
20 13.06 СЗ 2
{4}
н/о н/о +19.7 +10.3 55 +22 +22 комфорт 1017.7 982.9
21 13.06 С 2
{4}
н/о н/о +18.8 +9.6 55 +20 +20 1018.6 983.6
22 13.06 штиль 0
{3}
н/о н/о +18.0 +8.9 55 +18 +18 1019.5 984.4
23 13.06 С 1
{3}
н/о н/о +17.4 +9.4 59 +18 +18 1019.5 984.3
00 14.06 С 1
{4}
15 км ясно +17.3 +9.5 60 +19 +19 1019.7 984.5
01 14.06 С 2
{3}
н/о н/о +16.5 +9.7 64 +17 +17 1019.3 984.0
02 14.06 С 3
{4}
н/о н/о +16.4 +9.6 64 +16 +16 1019.3 984.0
03 14.06 СЗ 2
{4}
20 км ясно +15.7 +9.0 64 +16 +16 1018.9 983.5
04 14.06 С 2
{3}
н/о н/о +15.8 +9.9 68 +16 +16 1019.6 984.2
05 14.06
{3}
н/о н/о +16.1 +9.8 66 1020.7 985.3
06 14.06 З 1
{4}
25 км ясно +17.9 +10.8 63 +20 +24 1019.5 984.4 +15.5
07 14.06 Ю 1
{2}
н/о н/о +19.2 +11.4 61 +22 +22 комфорт 1019.5 984.5
08 14.06 Ю 1
{3}
н/о н/о +20.8 +9.9 50 +24 +24 комфорт 1018.6 983.9
09 14.06 Ю 1
{3}
н/о н/о +22.1 +11.1 50 +24 +24 комфорт 1019.0 984.4
10 14.06 Ю 1
{2}
н/о н/о +21.7 +12.0 54 +24 +24 комфорт 1018.8 984.2
11 14.06 Ю 1
{2}
н/о н/о +23.8 +14.3 55 +26 +26 жарко 1018.5 984.1
12 14.06 Ю 1
{3}
25 км ясно +25.1 +15.4 55 +28 +50 жарко 1017.5 983.3
13 14.06 Ю 1
{2}
н/о н/о +26.1 +13.1 45 +28 +28 жарко 1016.7 982.7
14 14.06 Ю 1
{2}
н/о н/о +25.4 +12.9 46 +27 +27 жарко 1016.2 982.1
15 14.06 Ю 1
{3}
н/о н/о +25.4 +15.0 53 +28 +28 жарко 1015.9 981.8
16 14.06 В 1
{4}
н/о н/о +25.2 +12.8 46 +27 +27 жарко 1015.3 981.2
17 14.06 СЗ 1
{4}
н/о н/о +23.4 +17.5 69 +29 +29 душно 1015.6 981.3 0.1
18 14.06 С 2
{4}
20 км 10/0
[]
+23.0 +17.4 71 +28 +29 душно 1015.6 981.2 +26.8
19 14.06 З 2
{4}
н/о н/о +21.1 +18.6 86 +25 +25 комфорт 1017.6 982.9 1
20 14.06 ЮЗ 2
{10}
н/о н/о +19.6 +17.6 88 +23 +23 комфорт 1015.8 981.0 3
21 14.06 З 3
{10}
н/о н/о +19.0 +16.7 87 +21 +21 комфорт 1017.0 982.1 0.4
22 14.06 СЗ 1
{5}
н/о н/о +18.3 +17.6 96 +20 +20 1016.2 981.2 1
23 14.06 С 1
{8}
н/о н/о +18.0 +16.9 93 +19 +19 1016.7 981.7
00 15.06 штиль 0
{10}
8000 м дымка {гроза, дождь} 8/8 1140 м
[]
+18.4 +16.9 91 +19 +19 1015.3 980.4
01 15.06 СВ 2
{4}
н/о н/о +17.8 +16.9 94 +19 +19 1015.7 980.7
02 15.06 С 2
{4}
н/о н/о +17.1 +16.2 94 +18 +18 1015.3 980.2
03 15.06 С 2
{4}
20 км {гроза, дождь} 4/4 1320 м
[]
+16.8 +16.0 95 +17 +17 1015.3 980.2
04 15.06
{2}
н/о н/о +16.8 +15.7 93 1015.4 980.3
05 15.06 С 1
{2}
н/о н/о +17.2 +16.0 93 +18 +18 1015.4 980.3
06 15.06 СВ 1
{4}
20 км {гроза} 3/3 1230 м
[]
+18.3 +16.3 88 +20 +23 1015.3 980.4 +16.4
07 15.06 Ю 1
{1}
н/о н/о +19.3 +16.3 83 +23 +23 комфорт 1015.4 980.6
08 15.06 ЮВ 1
{2}
н/о н/о +20.3 +17.0 81 +24 +24 комфорт 1015.4 980.7
09 15.06 Ю 1
{2}
н/о н/о +21.1 +17.4 79 +25 +25 комфорт 1015.3 980.7
10 15.06 Ю 1
{2}
н/о н/о +22.1 +17.4 75 +27 +27 душно 1014.7 980.3
11 15.06 ЮВ 1
{2}
н/о н/о +23.3 +17.6 70 +29 +29 душно 1014.4 980.1
12 15.06 Ю 1
{3}
20 км 8/8 1230 м
[]
+24.0 +17.9 69 +28 +33 душно 1014.0 979.8
13 15.06 ЮВ 2
{2}
н/о н/о +26.5 +18.7 62 +31 +31 душно 1013.1 979.2
14 15.06 Ю 1
{2}
н/о н/о +26.5 +15.7 51 +30 +30 душно 1012.3 978.5
15 15.06 Ю 2
{4}
н/о н/о +26.3 +17.0 57 +30 +30 душно 1012.0 978.2
16 15.06 ЮЗ 4
{9}
н/о н/о +25.3 +18.0 64 +30 +30 душно 1011.8 977.8
17 15.06 ЮЗ 1
{6}
н/о н/о +25.2 +17.6 63 +29 +29 душно 1011.5 977.5
18 15.06 ЮЗ 3
{9}
25 км 5/0 2000 м
[]
+25.1 +17.2 62 +29 +30 душно 1012.0 978.0 +27.0
19 15.06 ЮЗ 3
{5}
н/о н/о +24.6 +17.2 63 +28 +28 душно 1012.9 978.8
20 15.06 З 2
{10}
н/о н/о +18.1 +16.3 89 +19 +19 1015.5 980.5 2
21 15.06 С 3
{10}
н/о н/о +17.7 +15.7 88 +18 +18 1015.3 980.3 0.3
22 15.06 В 2
{8}
н/о н/о +16.8 +14.5 86 +17 +17 1015.3 980.2 0.1
23 15.06 СЗ 2
{4}
н/о н/о +19.1 +12.9 67 +21 +21 комфорт 1014.9 980.1
00 16.06 СЗ 1
{10}
20 км {гроза, дождь} ясно +17.8 +13.0 73 +19 +19 1015.2 980.2
01 16.06 С 1
{3}
н/о н/о +16.3 +12.6 79 +17 +17 1015.3 980.1
02 16.06 С 2
{3}
н/о н/о +15.3 +12.6 84 +15 +15 1015.0 979.7
03 16.06 ЮЗ 1
{3}
20 км {гроза, дождь} ясно +16.3 +12.8 80 +17 +17 1014.9 979.7
04 16.06 С 1
{3}
н/о н/о +15.2 +11.9 81 +16 +16 1015.2 979.9
05 16.06 С 1
{2}
н/о н/о +15.1 +12.1 82 +16 +16 1015.4 980.1
06 16.06 В 1
{3}
20 км ясно +17.5 +12.5 72 +19 +23 1015.3 980.3 +14.9
07 16.06 ЮВ 1
{2}
н/о н/о +18.5 +13.9 75 +20 +20 1015.4 980.5
08 16.06 ЮВ 2
{3}
н/о н/о +19.9 +13.1 65 +23 +23 комфорт 1015.0 980.3
09 16.06 ЮВ 2
{4}
н/о н/о +22.5 +13.0 55 +25 +25 комфорт 1014.6 980.2
10 16.06 В 2
{4}
н/о н/о +23.9 +14.9 57 +27 +27 жарко 1014.1 979.9
11 16.06 СЗ 3
{9}
н/о н/о +28.2 +9.4 31 +28 +28 жарко 1013.4 979.7
12 16.06 С 4
{9}
20 км ясно +28.9 +9.0 29 +29 +42 жарко 1012.9 979.3
13 16.06 С 3
{8}
н/о н/о +29.0 +10.6 32 +29 +29 жарко 1012.4 978.9
14 16.06 СЗ 3
{8}
н/о н/о +29.5 +9.6 29 +29 +29 жарко 1012.2 978.7
15 16.06 С 4
{8}
н/о н/о +29.8 +7.6 25 +29 +29 жарко 1011.8 978.4
16 16.06 С 4
{8}
н/о н/о +28.6 +10.6 33 +29 +29 жарко 1011.7 978.1
17 16.06 С 4
{10}
н/о н/о +27.7 +9.2 31 +28 +28 жарко 1012.1 978.4
18 16.06 С 4
{10}
25 км ясно +26.4 +8.3 32 +26 +27 жарко 1012.5 978.6 +29.9
19 16.06 С 4
{7}
н/о н/о +25.0 +7.1 32 +25 +25 комфорт 1012.6 978.6
20 16.06 С 4
{8}
н/о н/о +24.1 +7.2 34 +24 +24 комфорт 1013.3 979.1
21 16.06 СВ 2
{8}
н/о н/о +22.7 +8.2 39 +24 +24 комфорт 1013.8 979.5
22 16.06 ЮВ 1
{4}
н/о н/о +21.9 +10.0 47 +24 +24 комфорт 1014.3 979.8
23 16.06 СЗ 1
{4}
н/о н/о +20.9 +8.5 45 +24 +24 комфорт 1014.5 979.9
00 17.06 СЗ 1
{8}
15 км ясно +20.5 +9.5 49 +23 +23 комфорт 1015.0 980.4
01 17.06 СЗ 1
{2}
н/о н/о +19.3 +8.7 50 +21 +21 комфорт 1015.7 980.9
02 17.06 С 2
{3}
н/о н/о +18.6 +9.3 55 +20 +20 1015.8 980.9
03 17.06 С 1
{3}
15 км ясно +18.6 +10.0 57 +20 +20 1016.0 981.1
04 17.06 С 2
{3}
н/о н/о +17.8 +10.3 61 +19 +19 1016.4 981.4
05 17.06 СВ 1
{3}
н/о н/о +18.0 +10.8 63 +20 +20 1016.8 981.8
06 17.06 В 1
{3}
н/о н/о +20.0 +10.3 54 +23 +23 комфорт 1017.2 982.4 +17.2
07 17.06 ЮВ 1
{2}
н/о н/о +20.9 +11.5 55 +24 +24 комфорт 1017.5 982.8
08 17.06 Ю 1
{3}
н/о н/о +21.8 +12.2 54 +24 +24 комфорт 1017.5 982.9
09 17.06 Ю 2
{3}
н/о н/о +22.9 +14.2 58 +26 +26 жарко 1017.3 982.9
10 17.06 В 1
{2}
н/о н/о +25.3 +11.6 42 +27 +27 жарко 1016.9 982.8
11 17.06 СЗ 2
{4}
н/о н/о +27.1 +15.1 48 +30 +30 душно 1016.3 982.4
12 17.06 Ю 2
{4}
н/о н/о +26.8 +14.3 46 +29 +29 жарко 1015.9 982.0
13 17.06 В 2
{3}
н/о н/о +27.1 +13.7 44 +29 +29 жарко 1015.3 981.4
14 17.06 ЮВ 1
{3}
н/о н/о +28.1 +16.0 48 +31 +31 душно 1014.5 980.8
15 17.06 Ю 2
{3}
н/о н/о +27.8 +14.7 45 +30 +30 жарко 1014.0 980.3
16 17.06 Ю 1
{3}
н/о н/о +27.6 +15.2 47 +30 +30 жарко 1013.2 979.5
17 17.06 Ю 1
{3}
н/о н/о +26.9 +15.5 50 +30 +30 душно 1013.2 979.4
18 17.06 ЮЗ 1
{3}
н/о н/о +26.0 +18.2 62 +31 +31 очень
душно
1013.5 979.6 +28.4
19 17.06 СВ 1
{3}
н/о н/о +25.1 +14.6 52 +28 +28 жарко 1013.9 979.8
20 17.06 СЗ 2
{3}
н/о н/о +23.2 +14.8 59 +27 +27 душно 1014.8 980.5
21 17.06 СЗ 1
{3}
н/о н/о +22.5 +14.8 62 +26 +26 жарко 1015.5 981.1
22 17.06 С 1
{2}
н/о н/о +21.4 +14.8 66 +24 +24 комфорт 1016.2 981.6
23 17.06 С 1
{2}
н/о н/о +21.1 +14.9 68 +24 +24 комфорт 1016.3 981.7
00 18.06 С 1
{3}
15 км ясно +20.8 +14.9 69 +25 +25 комфорт 1016.5 981.8
01 18.06 С 1
{2}
н/о н/о +20.7 +14.7 68 +25 +25 комфорт 1016.5 981.8
02 18.06 штиль 0
{2}
н/о н/о +20.5 +14.9 70 +23 +23 комфорт 1016.5 981.8
03 18.06 Ю 3
{6}
15 км ясно +21.4 +17.5 78 +25 +25 комфорт 1016.7 982.1
04 18.06 С 4
{7}
н/о н/о +20.6 +15.3 72 +24 +24 комфорт 1017.2 982.5
05 18.06 С 2
{6}
н/о н/о +19.8 +16.3 80 +23 +23 комфорт 1016.7 981.9
06 18.06 С 1
{7}
н/о н/о +20.2 +16.5 79 +24 +24 комфорт 1017.1 982.3 +19.5
07 18.06 СЗ 1
{3}
н/о н/о +21.3 +16.5 74 +25 +25 комфорт 1016.9 982.3
08 18.06 Ю 1
{2}
н/о н/о +22.2 +16.6 71 +27 +27 душно 1016.5 982.0
09 18.06 ЮЗ 1
{3}
н/о н/о +23.7 +18.0 70 +28 +28 душно 1016.0 981.7
10 18.06 ЮВ 2
{3}
н/о н/о +25.5 +15.9 55 +29 +29 душно 1015.4 981.3
11 18.06 Ю 3
{5}
н/о н/о +26.4 +16.6 55 +30 +30 душно 1014.9 981.0
12 18.06 Ю 2
{5}
н/о н/о +27.1 +16.7 53 +31 +31 душно 1014.2 980.4
13 18.06 Ю 2
{5}
н/о н/о +27.6 +16.2 50 +31 +31 душно 1013.8 980.0
14 18.06 Ю 2
{5}
н/о н/о +27.6 +16.4 50 +31 +31 душно 1013.2 979.5
15 18.06 Ю 2
{5}
н/о н/о +28.4 +16.7 49 +32 +32 душно 1012.5 978.9
16 18.06 ЮЗ 2
{4}
н/о н/о +27.1 +17.1 54 +31 +31 душно 1012.5 978.7
17 18.06 З 1
{5}
н/о н/о +28.2 +15.9 47 +31 +31 душно 1012.3 978.7
18 18.06 Ю 1
{5}
15 км ясно +26.4 +17.7 59 +31 +32 душно 1012.6 978.7 +28.4
19 18.06 ЮВ 1
{2}
н/о н/о +25.3 +18.1 64 +30 +30 душно 1012.8 978.8
20 18.06 СЗ 3
{5}
н/о н/о +24.0 +17.2 66 +28 +28 душно 1013.5 979.3
21 18.06 С 2
{5}
н/о н/о +23.3 +16.4 65 +28 +28 душно 1014.1 979.8
22 18.06 З 1
{3}
н/о н/о +23.1 +16.2 65 +28 +28 душно 1014.4 980.1
23 18.06 В 1
{4}
н/о н/о +23.0 +17.6 72 +28 +28 душно 1014.5 980.2
00 19.06 С 5
{10}
10 км 9/9 930 м
[]
+23.4 +10.8 45 +26 +26 жарко 1014.3 980.0
01 19.06 СВ 2
{9}
н/о н/о +22.6 +10.8 47 +25 +25 комфорт 1014.0 979.6
02 19.06 С 2
{3}
н/о н/о +20.7 +12.8 61 +24 +24 комфорт 1014.0 979.4
03 19.06 С 1
{9}
15 км 8/8 930 м
[]
+19.5 +11.6 60 +22 +22 комфорт 1014.2 979.5
04 19.06 С 2
{3}
н/о н/о +19.2 +11.7 62 +21 +21 комфорт 1014.5 979.7
05 19.06 штиль 0
{2}
н/о н/о +19.4 +12.5 64 +21 +21 комфорт 1014.5 979.7
06 19.06 ЮЗ 1
{9}
15 км 5/5 1500 м
[]
+20.6 +12.4 59 +24 +26 комфорт 1014.3 979.7 +19.2
07 19.06 Ю 1
{2}
н/о н/о +21.4 +13.9 62 +24 +24 комфорт 1014.5 980.0
08 19.06 ЮВ 1
{2}
н/о н/о +22.5 +13.5 57 +26 +26 жарко 1013.9 979.5
09 19.06 ЮВ 2
{3}
н/о н/о +23.8 +15.5 60 +27 +27 жарко 1013.3 979.1
10 19.06 ЮВ 1
{3}
н/о н/о +25.0 +13.5 49 +27 +27 жарко 1012.8 978.8
11 19.06 В 2
{3}
н/о н/о +26.5 +14.0 46 +29 +29 жарко 1012.4 978.6
12 19.06 Ю 2
{3}
25 км 1/0 2000 м
[]
+27.2 +17.3 55 +31 +50 душно 1011.9 978.2
13 19.06 Ю 2
{3}
н/о н/о +28.0 +18.1 55 +33 +33 очень
душно
1011.0 977.4
14 19.06 Ю 2
{5}
н/о н/о +27.3 +18.0 57 +32 +32 очень
душно
1010.8 977.1
15 19.06 ЮЗ 2
{5}
н/о н/о +26.7 +15.5 50 +30 +30 душно 1010.9 977.1
16 19.06 Ю 2
{5}
н/о н/о +26.2 +17.1 57 +30 +30 душно 1010.3 976.5
17 19.06 Ю 1
{4}
н/о н/о +25.8 +18.3 63 +30 +30 душно 1010.6 976.7
18 19.06 Ю 1
{5}
25 км 4/4 1500 м
[]
+25.1 +18.0 65 +29 +30 душно 1010.6 976.7 +28.2
19 19.06 В 1
{2}
н/о н/о +24.8 +18.3 67 +29 +29 душно 1011.1 977.1
20 19.06 С 1
{3}
н/о н/о +23.4 +16.9 67 +29 +29 душно 1011.8 977.6
21 19.06 С 1
{3}
н/о н/о +22.8 +16.2 66 +27 +27 душно 1011.8 977.5
22 19.06 Ю 1
{2}
н/о н/о +22.3 +16.5 70 +27 +27 душно 1011.8 977.5

 

Местоположение метеостанции Лугано (Швейцария): широта 46.00 долгота 8.97 высота над уровнем моря 276 м.

В архиве по умолчанию представлена погода в Лугано за последнюю неделю. Архивные данные за месяц целиком и за предыдущие месяцы, начиная с января 2011 года, Вы можете получить, выбрав интересующий диапазон дат из раскрывающегося списка и нажав кнопку "Ввод!".


*Определитесь, кто Вы:
робот инопланетянин человек

Внимание! Время в таблицах - всемирное. Для получения местного времени необходимо прибавить поправку, которая равна 1 ч.

Смотрите также архив погоды в соседних городах и на ближайших метеорологических станциях:

Погода на Монте-Дженеросо (Швейцария) (9 км)
Погода в Стабио (Швейцария) (17 км)
Погода в Локарно-Магадино (Швейцария) (20 км)
Погода в Локарно-Монти (Швейцария) (24 км)
Погода на Циметте (Швейцария) (26 км)
Погода в Гроно (Швейцария) (31 км)
Погода в Севьо (Швейцария) (46 км)
Погода в Аэропорту Мальпенса (Италия) (46 км)
Погода на Матро (Швейцария) (47 км)
Погода в Аквароссе (Швейцария) (52 км)

Пояснения к столбцам:

Ветер - указаны скорость ветра в м/с - средняя за 10 мин, порывы в срок и между сроками (в фигурных скобках) и направление, откуда дует ветер: С - северный, СВ - северо-восточный, В - восточный, ЮВ - юго-восточный, Ю - южный, ЮЗ - юго-западный, З - западный, СЗ - северо-западный.
Видимость - горизонтальная дальность видимости в метрах или километрах. При видимости от 1 до 10 км при отсутствии осадков обычно наблюдается дымка, при ухудшении видимости до 1 км и менее - туман. В сухую погоду видимость может ухудшаться дымом, пылью или мглою.
Явления - указаны атмосферные явления, наблюдавшиеся в срок или в последний час перед сроком; фигурными скобками обозначены явления, наблюдавшиеся между сроками (за 1-3 часа до срока); квадратными скобками обозначены град или гололедные отложения с указанием их диаметра в мм.
Облачность - указаны через наклонную черту общая и нижняя облачность в баллах и высота нижней границы облаков в метрах; квадратными скобками обозначены формы облаков: Ci - перистые, Cs - перисто-слоистые, Cc - перисто-кучевые, Ac - высококучевые, As - высокослоистые, Sc - слоисто-кучевые, Ns - слоисто-дождевые, Cu - кучевые, Cb - кучево-дождевые. Подробнее классификацию облаков см. в Атласе облаков (PDF).
T - Температура воздуха - температура, измеренная на высоте 2 м над землей.
Td - Температура точки росы - температура, при понижении до которой содержащийся в воздухе водяной пар достигнет насыщения.
f - Относительная влажность воздуха - влажноcть воздуха, измеренная на высоте 2 м над землей.
Te - Эффективная температура - температура, которую ощущает одетый по сезону человек в тени. Характеристика душности погоды. При расчете учитывается влияние влажности воздуха и скорости ветра на теплоощущения человека.
Tes - Эффективная температура на солнце - температура, которую ощущает человек, с поправкой на солнечный нагрев. Характеристика знойности погоды. Зависит от высоты солнца над горизонтом, облачности и скорости ветра. Ночью, в пасмурную погоду, а также при ветре 12 м/с и более поправка равна нулю.
P - Атмосферное давление - приведенное к уровню моря атмосферное давление.
Po - Атмосферное давление - измеренное на уровне метеостанции атмосферное давление.
Tmin - Минимальная температура - минимум температуры воздуха на высоте 2 м над землей.
Tmax - Максимальная температура - максимум температуры воздуха на высоте 2 м над землей.
R - Количество осадков - Количество выпавших осадков за период времени, мм. При наведении курсора мыши на число - период времени, за который выпало указанное количество осадков.
R24 - Количество осадков - Количество выпавших осадков за 24 часа, мм.
S - Снежный покров - Высота снежного покрова, см. При наведении курсора мыши на число - состояние снежного покрова и степень покрытия местности в баллах.